Orbital Elements at Epoch 2459200.5 (2020-Dec-17.0) TDB
Reference: JPL 23 (heliocentric ecliptic J2000)
Element | Value | Uncertainty (1-sigma) | Units |
e | .1927536171334756 | 5.9382e-08 | |
a | 2.405298795180953 | 9.8376e-09 | au |
q | 1.941668752123033 | 1.4128e-07 | au |
i | 3.447145901025712 | 4.4499e-06 | deg |
node | 52.03503480801542 | 5.7024e-05 | deg |
peri | 330.674810548093 | 5.7772e-05 | deg |
M | 250.3469961933552 | 1.3106e-05 | deg |
tp | 2459615.520940120049 (2022-Feb-05.02094012) | 5.1199e-05 | TDB |
period | 1362.548523583296 3.73 | 8.3592e-06 2.289e-08 | d yr |
n | .2642107739790834 | 1.6209e-09 | deg/d |
Q | 2.868928838238872 | 1.1734e-08 | au |
|
| | Orbit Determination Parameters
Additional Information
|